TimeCDT,TemperatureF,Dew PointF,Humidity,Sea Level PressureIn,VisibilityMPH,Wind Direction,Wind SpeedMPH,Gust SpeedMPH,PrecipitationIn,Events,Conditions,WindDirDegrees,DateUTC
12:52 AM,24.1,17.1,75,30.13,10.0,NNW,13.8,-,N/A,,Overcast,340,2013-03-24 05:52:00
1:52 AM,24.1,16.0,71,30.13,10.0,NNW,13.8,-,N/A,,Overcast,340,2013-03-24 06:52:00
2:52 AM,24.1,17.1,75,30.12,10.0,NNW,15.0,-,N/A,,Overcast,340,2013-03-24 07:52:00
3:52 AM,23.0,19.0,85,30.11,1.8,NNW,16.1,-,0.00,Snow,Light Snow,330,2013-03-24 08:52:00
4:12 AM,23.0,19.4,86,30.05,2.0,NNW,13.8,-,0.00,Snow,Light Snow,340,2013-03-24 09:12:00
4:52 AM,23.0,19.9,88,30.09,1.8,NNW,16.1,-,0.00,Snow,Light Snow,340,2013-03-24 09:52:00
5:01 AM,23.0,19.4,86,30.04,2.5,NNW,16.1,-,0.00,Snow,Light Snow,340,2013-03-24 10:01:00
5:09 AM,23.0,19.4,86,30.04,3.0,NNW,13.8,-,0.00,Snow,Light Snow,340,2013-03-24 10:09:00
5:16 AM,23.0,19.4,86,30.03,3.0,NNW,12.7,-,0.00,Snow,Light Snow,340,2013-03-24 10:16:00
5:52 AM,21.9,19.0,89,30.08,5.0,NNW,13.8,-,0.00,Snow,Light Snow,340,2013-03-24 10:52:00
6:52 AM,21.9,19.0,89,30.08,4.0,NNW,13.8,-,0.00,,Overcast,340,2013-03-24 11:52:00
7:52 AM,21.9,18.0,85,30.07,4.0,NNW,15.0,-,0.00,,Mostly Cloudy,340,2013-03-24 12:52:00
8:05 AM,21.2,17.6,86,30.02,5.0,NNW,13.8,-,N/A,,Mostly Cloudy,330,2013-03-24 13:05:00
8:28 AM,21.2,17.6,86,30.02,2.0,NNW,17.3,-,0.00,Snow,Light Snow,330,2013-03-24 13:28:00
8:48 AM,21.2,19.4,93,30.01,1.8,NNW,17.3,-,0.00,Snow,Light Snow,330,2013-03-24 13:48:00
8:52 AM,21.9,18.0,85,30.07,1.8,NNW,17.3,-,0.00,Snow,Light Snow,330,2013-03-24 13:52:00
9:22 AM,23.0,19.4,86,30.01,2.0,NNW,17.3,-,0.00,Snow,Light Snow,330,2013-03-24 14:22:00
9:45 AM,23.0,19.4,86,30.01,2.5,NNW,16.1,-,0.00,Snow,Light Snow,340,2013-03-24 14:45:00
9:52 AM,24.1,19.0,81,30.06,2.5,NNW,16.1,-,0.00,Snow,Light Snow,340,2013-03-24 14:52:00
10:04 AM,24.8,19.4,80,30.01,1.8,NNW,18.4,-,0.00,Snow,Light Snow,340,2013-03-24 15:04:00
10:12 AM,24.8,19.4,80,30.01,2.5,NNW,16.1,-,0.00,Snow,Light Snow,340,2013-03-24 15:12:00
10:33 AM,24.8,19.4,80,30.00,3.0,NNW,18.4,-,0.00,Snow,Light Snow,340,2013-03-24 15:33:00
10:52 AM,25.0,19.9,81,30.06,5.0,NNW,19.6,-,0.00,Snow,Light Snow,330,2013-03-24 15:52:00
11:00 AM,26.6,21.2,80,30.00,4.0,NNW,18.4,-,0.00,Snow,Light Snow,340,2013-03-24 16:00:00
11:16 AM,26.6,21.2,80,30.00,3.0,NNW,18.4,-,0.00,Snow,Light Snow,340,2013-03-24 16:16:00
11:29 AM,26.6,21.2,80,29.99,4.0,NNW,17.3,-,0.00,Snow,Light Snow,340,2013-03-24 16:29:00
11:52 AM,27.0,21.9,81,30.05,8.0,NNW,15.0,-,0.00,,Overcast,340,2013-03-24 16:52:00
12:52 PM,28.0,23.0,81,30.04,4.0,NNW,16.1,-,N/A,,Haze,330,2013-03-24 17:52:00
1:32 PM,28.4,24.8,86,29.97,2.5,NNW,16.1,-,0.00,Snow,Light Snow,330,2013-03-24 18:32:00
1:52 PM,30.0,25.0,82,30.02,3.0,NNW,16.1,-,0.00,Snow,Light Snow,330,2013-03-24 18:52:00
2:52 PM,30.0,24.1,79,30.01,4.0,NNW,16.1,23.0,0.00,Snow,Light Snow,330,2013-03-24 19:52:00
3:43 PM,30.2,24.8,80,29.95,9.0,NNW,15.0,-,0.00,,Overcast,340,2013-03-24 20:43:00
3:52 PM,30.0,25.0,82,30.01,3.0,North,16.1,-,0.00,Snow,Light Snow,350,2013-03-24 20:52:00
4:11 PM,30.2,24.8,80,29.95,10.0,North,16.1,-,0.00,,Overcast,350,2013-03-24 21:11:00
4:24 PM,30.2,24.8,80,29.95,10.0,North,15.0,-,0.00,,Overcast,350,2013-03-24 21:24:00
5:52 PM,28.9,23.0,78,30.02,6.0,North,18.4,-,N/A,,Haze,350,2013-03-24 22:52:00
6:09 PM,28.4,23.0,80,29.97,10.0,North,19.6,-,N/A,,Overcast,350,2013-03-24 23:09:00
6:46 PM,28.4,24.8,86,29.97,1.8,NNW,18.4,-,0.00,Snow,Light Snow,340,2013-03-24 23:46:00
6:52 PM,28.0,25.0,88,30.03,1.0,NNW,17.3,-,0.00,Snow,Light Snow,340,2013-03-24 23:52:00
7:03 PM,28.4,24.8,86,29.97,2.0,NNW,17.3,-,0.00,Snow,Light Snow,340,2013-03-25 00:03:00
7:12 PM,28.4,24.8,86,29.98,5.0,NNW,16.1,-,0.00,,Overcast,340,2013-03-25 00:12:00
7:19 PM,28.4,24.8,86,29.98,6.0,NNW,16.1,-,0.00,,Overcast,340,2013-03-25 00:19:00
7:31 PM,28.4,24.8,86,29.98,1.8,NNW,16.1,-,0.00,Snow,Light Snow,340,2013-03-25 00:31:00
7:37 PM,28.4,24.8,86,29.98,2.0,NNW,17.3,-,0.00,Snow,Light Snow,340,2013-03-25 00:37:00
7:40 PM,28.4,24.8,86,29.98,3.0,NNW,16.1,-,0.00,Snow,Light Snow,340,2013-03-25 00:40:00
7:48 PM,28.4,24.8,86,29.98,9.0,NNW,17.3,-,0.00,,Overcast,340,2013-03-25 00:48:00
7:52 PM,28.9,24.1,82,30.04,10.0,NNW,16.1,-,0.00,,Overcast,340,2013-03-25 00:52:00
8:15 PM,28.4,24.8,86,29.99,7.0,North,13.8,23.0,0.00,Snow,Light Snow,350,2013-03-25 01:15:00
8:36 PM,28.4,24.8,86,29.99,6.0,North,17.3,24.2,0.00,Snow,Light Snow,350,2013-03-25 01:36:00
8:52 PM,28.9,24.1,82,30.05,3.0,North,19.6,24.2,0.00,Snow,Light Snow,350,2013-03-25 01:52:00
9:00 PM,28.4,24.8,86,30.00,1.8,North,17.3,26.5,0.00,Snow,Light Snow,350,2013-03-25 02:00:00
9:12 PM,28.4,24.8,86,30.00,1.8,North,17.3,-,0.00,Snow,Light Snow,350,2013-03-25 02:12:00
9:17 PM,28.4,24.8,86,30.00,3.0,North,18.4,-,0.00,Snow,Light Snow,350,2013-03-25 02:17:00
9:35 PM,28.4,24.8,86,30.00,5.0,North,18.4,-,0.00,Snow,Light Snow,350,2013-03-25 02:35:00
9:43 PM,28.4,24.8,86,30.00,4.0,North,17.3,24.2,0.00,Snow,Light Snow,350,2013-03-25 02:43:00
9:52 PM,28.0,25.0,88,30.06,1.8,North,17.3,24.2,0.00,Snow,Light Snow,350,2013-03-25 02:52:00
10:02 PM,28.4,24.8,86,30.01,2.0,North,19.6,-,0.00,Snow,Light Snow,360,2013-03-25 03:02:00
10:15 PM,28.4,24.8,86,30.01,3.0,North,18.4,-,0.00,Snow,Light Snow,360,2013-03-25 03:15:00
10:33 PM,28.4,24.8,86,30.01,2.0,North,16.1,-,0.00,Snow,Light Snow,350,2013-03-25 03:33:00
10:48 PM,28.4,24.8,86,30.01,2.0,North,17.3,-,0.00,Snow,Light Snow,360,2013-03-25 03:48:00
10:52 PM,28.0,25.0,88,30.06,2.5,North,19.6,25.3,0.00,Snow,Light Snow,360,2013-03-25 03:52:00
11:13 PM,28.4,24.8,86,30.01,3.0,North,16.1,24.2,0.00,Snow,Light Snow,360,2013-03-25 04:13:00
11:44 PM,28.4,24.8,86,30.01,2.5,North,18.4,-,0.00,Snow,Light Snow,360,2013-03-25 04:44:00
11:52 PM,27.0,24.1,89,30.07,1.0,North,18.4,26.5,0.00,Snow,Light Snow,350,2013-03-25 04:52:00
11:55 PM,26.6,24.8,93,30.01,1.2,North,21.9,26.5,0.00,Snow,Light Snow,350,2013-03-25 04:55:00